Погода в Клинцах

Россия / Брянская область     52°45′11″N   32°14′01″E
темп.,
°C
ветер,
м/с
пор.,
м/с
влажн.,
%
обл.,
%
осадки,
мм/ч
давл.,
гПа
погр.,
м
11 мая, вт
вт1100:00+7всв34760 0.0 102564
03:00+6св47770 0.0 1026103
06:00+6св39790 0.0 1025159
09:00+12св58650 0.0 1024450
12:00+17св56584 0.0 1023708
15:00+19св67564 0.0 10211032
18:00+19св58683 0.0 10211056
21:00+13в49914 0.0 1021190
12 мая, ср
ср1200:00+9вюв512895 0.0 1023449
03:00+7в512920 0.0 1023365
06:00+7в5128876 0.0 1024598
09:00+11вюв6107516 0.0 1023810
12:00+14в6860100 0.0 10211612
15:00+15всв6758100 0.3 10191472
18:00+12в5777100 1.1 1017355
21:00+9всв378886 1.8 1016169
13 мая, чт
чт1300:00+7всв4997100 0.0 1014232
03:00+7в4998100 0.9 1012397
06:00+8юв499297 7.4 1012502
09:00+9юв7108367 7.4 1013860
12:00+11ююв697868 0.3 10131038
15:00+14ююв5864100 0.8 10131529
18:00+14ю577073 0.1 10121186
21:00+10юв348162 0.1 101349
14 мая, пт
пт1400:00+9юв41085100 0.0 1013171
03:00+10вюв41081100 0.0 1012193
06:00+10вюв398199 0.0 1012221
09:00+13вюв499295 0.8 1010410
12:00+19юв687033 0.1 10091284
15:00+21ю6962100 1.3 10081723
18:00+19ю477240 0.8 1008994
21:00+15ю338716 0.9 100822
15 мая, сб
сб1500:00+13ююв22915 0.1 100821
03:00+12ююв229497 1.3 100822
06:00+12ююз259753 0.8 1008127
09:00+16зюз3482100 0.8 1008542
12:00+19юз4568100 0.1 10081196
15:00+18зюз567398 0.9 1008776
18:00+17з567867 0.3 1009893
21:00+14зюз358632 0.9 1009123